Погода в Керки

Погода в Керки : погода сейчас, прогноз погоды и архив. Всё, что Вы хотите узнать о погоде в Керки!

Хотите узнать прогноз погоды в Керки? Тогда Вам сюда: Погода в Керки

Поиск расширенной информации на нашем сайте:

Другие новости

Новости СМИ2

Главная страница сайта

Новости сайта

03.07.2017

Напоминаем, что на нашем специализированном сайте Метеоцентр.Азия вы можете получить высокодетализированные автоматические прогнозы погоды по пунктам России, СНГ и мира в авиационном формате (включающие направление и скорость ветра, видимость, явления погоды, количество и форму облачности, нижнюю и верхнюю границу облачности).

Рекомендуем: Свежая информация старые книги купить на сайте.

Погода в Керки - сегодня

Время (UTC), дата Ветер
(°,м/с) 
Видим.   Явления Облачность Т
(°С)
Тd
(°С)
f(%) Тe
(°С)
Pmin
(гПа)
dP
(гПа)
Po
(мм)
O2
(г/м3)
Тmin Tmax R s Состояние
почвы
18 16.09.17 300 (СЗ) 10 км    ясно 
+20 +7.3 44 +20  1014.8  0.8  740  277    +30.4       
21 16.09.17 тихо ()   10 км    ясно 
+16.9 +6.4 50 +17  1014.7  -0.4  740  280           
00 17.09.17 тихо ()   10 км    ясно 
+14.5 +9.9 74 +16  1015.3  0.4  740  281           
03 17.09.17 тихо ()   20000 м    ясно 
+15 +6.8 58 +15  1016.3  1.3  741  282           
06 17.09.17 210 (ЮЗ) 20000 м    ясно 
+27.8 +4.5 23 +28  1016  0.6  741  270  +12.2         
09 17.09.17 тихо ()   20000 м    ясно 
+31.4 -1.9 12 +31  1014.3  -1.4  740  268           
12 17.09.17 320 (СЗ) 20000 м    ясно 
+31.8 -3.3 10 +32  1013.3  -1  740  267           
15 17.09.17 тихо ()   10 км    ясно 
+25.1 +6.4 30 +25  1014.2  0.4  740  272    +32.4       
18 17.09.17 230 (ЮЗ) 10 км    ясно 
+19 +12.8 67 +26  1014.7  740  276    +32.4       
21 17.09.17 070 (В) 10 км    ясно 
+17 +8.4 57 +18  1015.2  0.2  740  279           
00 18.09.17 190 (Ю) 10 км    ясно 
+13.4 +8.9 74 +14  1015.8  0.3  740  283           
03 18.09.17 180 (Ю) 20000 м    ясно 
+13.8 +7 63 +15  1016.6  0.7  741  283           
06 18.09.17 150 (ЮВ) 20000 м    ясно 
+26.2 +6.2 28 +26  1015.8  0.4  741  272  +12.5         
09 18.09.17 150 (ЮВ) 20000 м    ясно 
+32 +0.6 13 +32  1014.8  -0.4  741  267           
12 18.09.17 010 (С) 20000 м    ясно 
+32 -1.7 11 +32  1013.5  -1.3  740  267           
15 18.09.17 тихо ()   10 км    ясно 
+25.4 +6.4 30 +25  1013.6  -0.4  740  272    +32.6       
18 18.09.17 тихо ()   10 км    ясно 
+22.1 +10.3 47 +24  1014.7  0.8  740  274    +32.6       
21 18.09.17 тихо ()   10 км    ясно 
+19.6 +9.7 53 +21  1014  -1  739  276           
00 19.09.17 310 (СЗ) 10 км    ясно 
+16.9 +11.2 69 +21  1014  -0.3  739  278           
03 19.09.17 тихо ()   20000 м    ясно 
+16.4 +9.7 65 +17  1015.1  1.1  740  280           
06 19.09.17 160 (Ю) 20000 м    ясно 
+25.8 +13.8 47 +33  1014.7  0.6  740  270  +15.2         
09 19.09.17 350 (С) 20000 м    ясно 
+32.8 +8.9 23 +33  1012.8  -1.4  739  264           
12 19.09.17 310 (СЗ) 20000 м    ясно 
+32.6 +5.5 18 +33  1011.2  -1.5  738  265           
15 19.09.17 360 (С) 10 км    ясно 
+26.4 +10.2 36 +28  1012.2  0.4  739  270    +33.4       
18 19.09.17 330 (СЗ) 10 км    ясно 
+22.4 +8.2 40 +22  1012  -0.5  738  274    +33.4       
Время (UTC), дата Ветер
(°,м/с) 
Видим.   Явления Облачность Т
(°С)
Тd
(°С)
f(%) Тe
(°С)
Pmin
(гПа)
dP
(гПа)
Po
(мм)
O2
(г/м3)
Тmin Tmax R s Состояние
почвы

Для получения пояснительной информации подведите курсор к названию столбца.

ПОГОДА в Керки - архив

Всё, что Вы хотите узнать о погоде в Керки - удобно и подробно!

Выберите нужную дату (начиная с 1 января 2015* года) и нажмите кнопку "Найти".
Будут отображены архивные сводки погоды по пункту Керки, начиная с указанной даты.


Отображать данные в формате CSV (для использования в таблицах Excel)


Внимание! Наш архив погоды предназначен исключительно для личного некоммерческого использования в познавательных целях. Если Вам необходимы официальные справки о состоянии погоды (для производственных, юридических, коммерческих и т.п. целей), обращайтесь в органы Росгидромета.

*Примечание: данная дата относится к архиву по метеостанциям СССР (Россия, СНГ, Балтия).
Архив по метеостанциям Зарубежной Европы и Азии (кроме Китая) хранится 10 дней, по другим регионам земного шара (Китай, Африка, Америка, Австралия, Океания) - 1 день.

Керки - район местоположения метеостанции


Название, широта, долгота, высота метеостанции:
Керки 37.8°ш. 65.2°д. 240 м над ур. моря [Туркменистан]

Дополнительная информация

В oтличие oт бoльшинства пoгoдных сайтoв мы публикуем пoдрoбную метеoинфoрмацию в детальнoм прoфессиoнальнoм фoрмате.

Характеристики температуры и влажнoсти вoздуха измеряются на высoте 2 м в тени вдали oт зданий и деревьев.
Скoрoсть ветра измеряется на высoте 10 м (на урoвне рoста челoвека скoрoсть ветра ниже в 1.5-2 раза). Если метеoстанция нахoдится в гoрoде или в лесу, тo скoрoсть ветра занижена на 2-4 м/с пo сравнению с oткрытым местoм. Скoрoсть ветра над акватoриями крупных рек и oзёр, а также на вершинах хoлмoв на 2-5 м/с выше, чем в oбычных услoвиях.
Атмoсфернoе давление в разных тoчках местнoсти мoжет значительнo oтличаться oт давления на метеoстанции, в зависимoсти oт услoвий рельефа (при пoдъёме на 10 м давление пoнижается примернo на 1 мм рт.ст.).